Voltar ao catálogo

PIESAT-2 10

AtivoCiênciaSSO
NORAD 62334·PAYLOAD·🇨🇳 China

Lançado Dec 16, 2024 de Taiyuan Satellite Launch Center

Loading…

Próximas Passagens (próximas 24 horas)

TLE

AtualizadoSource: Space-Track

Época: Sep 14, 2026, 14:41 UTC

1 62334U 24241B   26257.61187029  .00006772  00000-0  36262-3 0  9991
2 62334  97.5404 204.8690 0001943  76.9075 283.2374 15.15346411 96341

Acompanhe PIESAT-2 10 em tempo real com AllMySat

Download on the App Store